Flag for Central African Republic Weather past 2 weeks in Bambari, Central African Republic

Now
91 °F

Passing clouds.


Feels Like: 92 °F
Forecast: 74 / 97 °F
Wind: 7 mph from West

Location: Bangui Airport

Current Time: Feb 28, 2015 at 1:41:11 PM

Latest Report: Feb 28, 2015 at 1:00 PM


Visibility: N/A

Pressure: 29.83 "Hg

Humidity: 38%

Dew point: 63 °F

Location of BambariLocation

Historic Weather in Bambari — Graph

°F

Bambari temperature yesterday

Maximum temperature yesterday: 95 °F (at 3:00 PM)
Minimum temperature yesterday: 73 °F (at 5:00 AM)
Average temperature yesterday: 82 °F

Past Weeks' High & Low Weather Summary

 TemperatureHumidityPressure
High100 °F (Feb 17, 2:00 PM)100% (Feb 18, 11:00 PM)30.01 "Hg (Feb 18, 11:00 PM)
Low66 °F (Feb 19, 6:00 AM)32% (Feb 26, 4:00 PM)29.68 "Hg (Feb 17, 3:00 PM)
Average83 °F71%29.82 "Hg
* Reported Feb 13 12:00 Noon — Feb 28 12:00 Noon, Bambari, Weather by CustomWeather, © 2015

Note: Actual official high and low records may vary slightly from our data, if they occured in-between our weather recording intervals... More about our weather records

Advertising

Bambari weather history for previous 24 hours

 ConditionsComfort  
Time TempWeatherWind HumidityBarometerVisibility
12:00 PM
Sat, Feb 28
90 °FPassing clouds.8 mph43%29.86 "HgN/A
11:00 AM88 °FPartly sunny.7 mph55%29.92 "HgN/A
10:00 AM84 °FPartly sunny.8 mph62%29.92 "HgN/A
9:00 AM82 °FPartly sunny.3 mph70%29.95 "HgN/A
8:00 AM77 °FPassing clouds.6 mph79%29.92 "HgN/A
7:00 AM75 °FPartly sunny.No wind89%29.89 "HgN/A
5:00 AM75 °FClear.1 mph94%29.89 "Hg10 mi
2:00 AM77 °FClear.2 mph89%29.83 "Hg10 mi
1:00 AM77 °FClear.2 mph89%29.83 "Hg10 mi
12:00 AM79 °FClear.3 mph84%29.86 "Hg10 mi
11:00 PM
Fri, Feb 27
79 °FClear.2 mph84%29.86 "Hg10 mi
10:00 PM81 °FClear.5 mph79%29.86 "Hg10 mi
9:00 PM82 °FClear.8 mph74%29.86 "Hg10 mi
8:30 PM84 °FClear.9 mph66%29.86 "Hg10 mi
7:00 PM84 °FClear.5 mph70%29.83 "Hg10 mi
6:00 PMN/AClear.7 mphN/A29.80 "Hg10 mi
5:00 PM91 °FSunny.2 mph52%29.77 "Hg10 mi
4:00 PM93 °FPartly sunny.5 mph44%29.77 "HgN/A
3:00 PM95 °FPartly sunny.2 mph39%29.77 "HgN/A
2:00 PM93 °FBroken clouds.2 mph47%29.80 "HgN/A
1:00 PM91 °FPartly sunny.6 mph49%29.83 "HgN/A
Weather by CustomWeather, © 2015

See weather overviewHow to use our weather pages